Hillsboro, OR

3:16 AM PDT on September 26, 2016 (GMT -0700)
Portland-Hillsboro

Weather History for KHIO - February, 2013

Change the Weather History Date:

Saturday, February 16, 2013

  Actual Average Record
Temperature  
Mean Temperature 42 °F 42 °F  
Max Temperature 51 °F 51 °F 62 °F (2015)
Min Temperature 33 °F 34 °F 16 °F (1956)
Degree Days  
Heating Degree Days 23 23  
Month to date heating degree days 352 368  
Since 1 July heating degree days 3094 3261  
Cooling Degree Days 0 0  
Month to date cooling degree days 0 0  
Year to date cooling degree days 0 0  
Moisture  
Dew Point 39 °F    
Average Humidity 83    
Maximum Humidity 100    
Minimum Humidity 66    
Precipitation  
Precipitation 0.02 in 0.13 in 1.63 in (1970)
Month to date precipitation 0.63 2.80  
Year to date precipitation 2.10 8.86  
Snow  
Snow 0.00 in - - ()
Month to date snowfall 0.0  
Since 1 July snowfall 0.0  
Snow Depth 0.00 in    
Sea Level Pressure  
Sea Level Pressure 30.25 in    
Wind  
Wind Speed 5 mph (West)    
Max Wind Speed 16 mph    
Max Gust Speed 20 mph    
Visibility 6 miles    
Events Fog , Rain    
T = Trace of Precipitation, MM = Missing Value Source: NWS Daily Summary

Daily Weather History Graph

Daily Weather History Graph

Search for Another Location

Airport or City:

Trip Planner

Search our weather history database for the weather conditions in past years. The results will help you decide how hot, cold, wet, or windy it might be!

Date:

Astronomy

Feb. 16, 2013 Rise Set
Actual Time 7:11 AM PST 5:40 PM PST
Civil Twilight 6:41 AM PST 6:11 PM PST
Nautical Twilight 6:06 AM PST 6:45 PM PST
Astronomical Twilight 5:32 AM PST 7:20 PM PST
Moon 10:06 AM PST (2/16) 12:07 AM PST (2/16)
Length of Visible Light 11h 30m
Length of Day
10h 29m
Waxing Crescent, 40% of the Moon is Illuminated
Feb 16
Waxing Crescent
Feb 17
First Quarter
Feb 25
Full
Mar 4
Last Quarter
Mar 11
New

Hourly Weather History & Observations

Time (PST) Temp. Windchill Dew Point Humidity Pressure Visibility Wind Dir Wind Speed Gust Speed Precip Events Conditions
12:53 AM 36.0 °F 33.3 °F 35.1 °F 97% 30.24 in 10.0 mi WNW 3.5 mph - N/A   Clear
1:53 AM 36.0 °F - 35.1 °F 97% 30.23 in 5.0 mi Calm Calm - N/A   Clear
2:31 AM 36.0 °F 33.3 °F 35.1 °F 97% 30.23 in 7.0 mi WNW 3.5 mph - N/A   Mostly Cloudy
2:41 AM 36.0 °F 32.1 °F 35.1 °F 97% 30.23 in 2.5 mi WNW 4.6 mph - N/A   Mostly Cloudy
2:49 AM 37.4 °F 33.8 °F 35.6 °F 93% 30.23 in 8.0 mi WNW 4.6 mph - N/A   Overcast
2:53 AM 37.9 °F 34.4 °F 37.0 °F 97% 30.23 in 10.0 mi NW 4.6 mph - N/A   Overcast
3:27 AM 39.9 °F - 39.0 °F 97% 30.22 in 8.0 mi Calm Calm - N/A   Overcast
3:53 AM 41.0 °F 39.0 °F 39.9 °F 96% 30.22 in 4.0 mi WNW 3.5 mph - N/A   Overcast
4:09 AM 43.0 °F 40.3 °F 42.1 °F 97% 30.22 in 2.0 mi West 4.6 mph - N/A   Overcast
4:22 AM 42.1 °F 39.2 °F 42.1 °F 100% 30.23 in 3.0 mi WNW 4.6 mph - N/A   Overcast
4:53 AM 42.1 °F 39.2 °F 41.0 °F 96% 30.23 in 0.8 mi SW 4.6 mph - N/A   Overcast
5:09 AM 42.1 °F 39.2 °F 42.1 °F 100% 30.23 in 1.2 mi WSW 4.6 mph - N/A   Overcast
5:23 AM 42.1 °F 40.2 °F 42.1 °F 100% 30.24 in 0.5 mi SW 3.5 mph - N/A Fog Fog
5:49 AM 42.8 °F 40.1 °F 42.8 °F 100% 30.24 in 1.5 mi South 4.6 mph - N/A   Overcast
5:53 AM 42.1 °F 39.2 °F 42.1 °F 100% 30.25 in 2.0 mi South 4.6 mph - N/A   Overcast
6:53 AM 42.1 °F 40.2 °F 41.0 °F 96% 30.25 in 2.0 mi SE 3.5 mph - N/A   Overcast
7:53 AM 42.1 °F - 42.1 °F 100% 30.27 in 2.0 mi Calm Calm - N/A   Overcast
8:53 AM 44.1 °F - 42.1 °F 93% 30.27 in 2.0 mi Calm Calm - N/A   Overcast
9:44 AM 45.0 °F - 42.1 °F 90% 30.27 in 2.0 mi Calm Calm - N/A   Overcast
9:53 AM 45.0 °F - 42.1 °F 90% 30.28 in 2.0 mi Calm Calm - N/A   Overcast
10:00 AM 45.0 °F - 42.1 °F 90% 30.27 in 6.0 mi Calm Calm - N/A   Overcast
10:21 AM 46.0 °F - 42.1 °F 86% 30.27 in 7.0 mi Calm Calm - N/A   Overcast
10:53 AM 46.0 °F - 42.1 °F 86% 30.27 in 9.0 mi Calm Calm - N/A   Overcast
11:53 AM 48.0 °F - 43.0 °F 83% 30.27 in 10.0 mi SSW 4.6 mph - 0.00 in Rain Light Rain
12:37 PM 50.0 °F - 44.1 °F 80% 30.25 in 10.0 mi SW 5.8 mph - 0.00 in   Overcast
12:53 PM 48.9 °F - 43.0 °F 80% 30.25 in 10.0 mi SW 9.2 mph - 0.00 in Rain Light Rain
1:00 PM 50.0 °F - 44.1 °F 80% 30.24 in 7.0 mi West 6.9 mph - 0.01 in Rain Light Rain
1:53 PM 46.9 °F - 42.1 °F 83% 30.24 in 10.0 mi NNW 5.8 mph - 0.02 in   Overcast
2:53 PM 51.1 °F - 41.0 °F 68% 30.23 in 10.0 mi NW 10.4 mph - N/A   Mostly Cloudy
3:53 PM 48.9 °F - 39.0 °F 69% 30.25 in 10.0 mi NW 9.2 mph - N/A   Mostly Cloudy
4:53 PM 48.0 °F - 37.0 °F 66% 30.25 in 10.0 mi WNW 12.7 mph - N/A   Scattered Clouds
5:53 PM 45.0 °F 38.2 °F 37.0 °F 74% 30.25 in 10.0 mi WNW 15.0 mph - N/A   Clear
6:53 PM 43.0 °F 36.8 °F 36.0 °F 76% 30.26 in 10.0 mi NW 11.5 mph - N/A   Clear
7:53 PM 39.9 °F 35.1 °F 35.1 °F 83% 30.28 in 10.0 mi NW 6.9 mph - N/A   Clear
8:53 PM 39.9 °F 35.8 °F 35.1 °F 83% 30.28 in 10.0 mi West 5.8 mph - N/A   Scattered Clouds
9:53 PM 37.9 °F - 34.0 °F 86% 30.29 in 10.0 mi Calm Calm - N/A   Clear
10:53 PM 36.0 °F 32.1 °F 34.0 °F 93% 30.30 in 10.0 mi NW 4.6 mph - N/A   Mostly Cloudy
11:53 PM 36.0 °F 33.3 °F 34.0 °F 93% 30.30 in 9.0 mi SSW 3.5 mph - 0.00 in   Scattered Clouds